Wolf Point, MT

8:49 PM MST on December 09, 2016 (GMT -0700)
Clayton

Weather History for KOLF - January, 2013

Change the Weather History Date:

Thursday, January 3, 2013

  Actual Average Record
Temperature  
Mean Temperature 7 °F -  
Max Temperature 18 °F 24 °F 49 °F (2012)
Min Temperature -5 °F 0 °F -29 °F (2009)
Degree Days  
Heating Degree Days 58    
Cooling Degree Days 0    
Moisture  
Dew Point 1 °F    
Average Humidity 81    
Maximum Humidity 92    
Minimum Humidity 68    
Precipitation  
Precipitation 0.00 in 0.01 in 0.06 in (2003)
Month to date precipitation T 0.04  
Year to date precipitation T 0.04  
Sea Level Pressure  
Sea Level Pressure 30.24 in    
Wind  
Wind Speed 5 mph (WSW)    
Max Wind Speed 16 mph    
Max Gust Speed -    
Visibility 9 miles    
Events      
T = Trace of Precipitation, MM = Missing Value Source: NWS Daily Summary

Daily Weather History Graph

Daily Weather History Graph

Search for Another Location

Airport or City:

Trip Planner

Search our weather history database for the weather conditions in past years. The results will help you decide how hot, cold, wet, or windy it might be!

Date:

Astronomy

Jan. 03, 2013 Rise Set
Actual Time 7:52 AM MST 4:21 PM MST
Civil Twilight 7:16 AM MST 4:58 PM MST
Nautical Twilight 6:36 AM MST 5:37 PM MST
Astronomical Twilight 5:59 AM MST 6:15 PM MST
Moon 11:33 PM MST (1/3) 10:34 AM MST (1/3)
Length of Visible Light 9h 41m
Length of Day
8h 29m
Waning Gibbous, 65% of the Moon is Illuminated
Jan 3
Waning Gibbous
Jan 4
Last Quarter
Jan 11
New
Jan 18
First Quarter
Jan 26
Full

Hourly Weather History & Observations

Time (MST) Temp. Windchill Dew Point Humidity Pressure Visibility Wind Dir Wind Speed Gust Speed Precip Events Conditions
12:53 AM 7.0 °F -1.7 °F 5.0 °F 92% 30.38 in 10.0 mi SW 4.6 mph - N/A   Clear
1:53 AM 5.0 °F -5.6 °F 1.9 °F 87% 30.38 in 9.0 mi WSW 5.8 mph - N/A   Clear
2:53 AM 3.0 °F -4.4 °F -0.0 °F 87% 30.38 in 8.0 mi West 3.5 mph - N/A   Clear
3:36 AM -0.4 °F -10.4 °F -2.2 °F 92% 30.23 in 8.0 mi West 4.6 mph - N/A   Partly Cloudy
3:53 AM -0.9 °F -11.0 °F -4.0 °F 87% 30.35 in 9.0 mi West 4.6 mph - N/A   Partly Cloudy
4:53 AM 1.0 °F - -2.9 °F 83% 30.32 in 9.0 mi Calm Calm - N/A   Partly Cloudy
5:53 AM -0.9 °F - -6.0 °F 79% 30.32 in 10.0 mi Calm Calm - N/A   Clear
6:53 AM -2.9 °F - -7.1 °F 82% 30.30 in 10.0 mi Calm Calm - N/A   Scattered Clouds
7:11 AM -0.4 °F - -5.8 °F 78% 30.16 in 1.8 mi Calm Calm - N/A   Scattered Clouds
7:23 AM -2.2 °F - -5.8 °F 85% 30.15 in 4.0 mi Calm Calm - N/A   Partly Cloudy
7:53 AM -2.9 °F - -7.1 °F 82% 30.28 in 10.0 mi Calm Calm - N/A   Clear
8:53 AM -0.9 °F - -5.1 °F 83% 30.25 in 10.0 mi Calm Calm - N/A   Clear
9:53 AM 5.0 °F - 3.0 °F 92% 30.24 in 10.0 mi Calm Calm - N/A   Clear
10:53 AM 10.0 °F - 7.0 °F 87% 30.23 in 10.0 mi Calm Calm - N/A   Clear
11:53 AM 12.9 °F 6.9 °F 7.0 °F 77% 30.21 in 10.0 mi WSW 3.5 mph - N/A   Clear
12:53 PM 17.1 °F 4.3 °F 8.1 °F 68% 30.18 in 10.0 mi WSW 11.5 mph - N/A   Clear
1:53 PM 17.1 °F 2.0 °F 9.0 °F 71% 30.17 in 10.0 mi WSW 16.1 mph - N/A   Clear
2:53 PM 17.1 °F 4.3 °F 8.1 °F 68% 30.18 in 10.0 mi WSW 11.5 mph - N/A   Clear
3:53 PM 14.0 °F 2.9 °F 7.0 °F 74% 30.20 in 10.0 mi WSW 8.1 mph - N/A   Clear
4:53 PM 12.2 °F -0.2 °F 5.0 °F 73% 30.07 in 10.0 mi WSW 9.2 mph - N/A   Clear
5:53 PM 10.9 °F -3.4 °F 3.9 °F 73% 30.22 in 10.0 mi SW 11.5 mph - N/A   Clear
6:53 PM 9.0 °F -2.2 °F 3.0 °F 77% 30.24 in 10.0 mi WSW 6.9 mph - N/A   Clear
7:53 PM 8.1 °F -5.3 °F 3.0 °F 80% 30.24 in 10.0 mi WSW 9.2 mph - N/A   Clear
8:53 PM 7.0 °F -7.5 °F 1.9 °F 80% 30.24 in 10.0 mi WSW 10.4 mph - N/A   Clear
9:53 PM 5.0 °F -9.1 °F 1.0 °F 84% 30.23 in 10.0 mi WSW 9.2 mph - N/A   Clear
10:53 PM 3.9 °F -11.3 °F -0.0 °F 84% 30.22 in 10.0 mi WSW 10.4 mph - N/A   Clear
11:53 PM 3.9 °F -10.4 °F -0.0 °F 84% 30.22 in 10.0 mi WSW 9.2 mph - N/A   Clear